{"data":{"norad_id":59330,"intl_designator":"2024-057L","name":"STARLINK-31634","alt_names":[],"object_type":"PAYLOAD","status":"ACTIVE","operator":null,"country":"US","launch_date":"2024-03-25","launch_site_code":"AFETR","launch_vehicle":null,"mission":null,"orbit_class":"UNKNOWN","rcs_meters":null,"size_class":null,"mass_kg":null,"dimensions":null,"purposes":["comms"],"wikipedia_slug":null,"has_3d_model":false,"image_url":null,"decayed_at":null,"tle_current":{"epoch":"2026-05-24T23:26:44.348352Z","epoch_age_seconds":73169,"freshness":"FRESH","line1":"1 59330U 24057L   26144.97690218 -.00000363  00000+0 -36722-5 0  9995","line2":"2 59330  43.0025 116.4626 0001006 291.3196  68.7548 15.27578297121500","mean_motion":15.27578297,"eccentricity":0.0001006,"inclination_deg":43.0025,"raan_deg":116.4626,"arg_perigee_deg":291.3196,"mean_anomaly_deg":68.7548,"bstar":-3.6722e-6,"rev_number":12150,"period_min":94.266853805661,"perigee_km":482.36395960478,"apogee_km":483.7444312733,"semimajor_km":6861.191195439,"source":"CELESTRAK","updated_at":"2026-05-25T13:38:18.904734Z"}}}